Fort Pierce, FL

3:08 PM EST on January 20, 2017 (GMT -0500)
Saint Lucie County International

Weather History for KFPR - September, 2013

Change the Weather History Date:

Thursday, September 19, 2013

  Actual Average Record
Temperature  
Mean Temperature 78 °F -  
Max Temperature 84 °F 88 °F 94 °F (1987)
Min Temperature 72 °F 71 °F 65 °F (1981)
Cooling Degree Days 13    
Growing Degree Days 28 (Base 50)    
Moisture  
Dew Point 72 °F    
Average Humidity 80    
Maximum Humidity 97    
Minimum Humidity 67    
Precipitation  
Precipitation 0.00 in - - ()
Sea Level Pressure  
Sea Level Pressure 30.00 in    
Wind  
Wind Speed 6 mph (ENE)    
Max Wind Speed 15 mph    
Max Gust Speed 21 mph    
Visibility 10 miles    
Events Rain    
Averages and records for this station are not official NWS values.
T = Trace of Precipitation, MM = Missing Value Source: NWS Daily Summary

Daily Weather History Graph

Daily Weather History Graph

Search for Another Location

Airport or City:

Trip Planner

Search our weather history database for the weather conditions in past years. The results will help you decide how hot, cold, wet, or windy it might be!

Date:

Astronomy

Sep. 19, 2013 Rise Set
Actual Time 7:08 AM EDT 7:21 PM EDT
Civil Twilight 6:45 AM EDT 7:44 PM EDT
Nautical Twilight 6:18 AM EDT 8:11 PM EDT
Astronomical Twilight 5:50 AM EDT 8:39 PM EDT
Moon 7:25 PM EDT (9/19) 7:11 AM EDT (9/19)
Length of Visible Light 12h 59m
Length of Day
12h 12m
Full, 100% of the Moon is Illuminated
Sep 19
Full
Sep 26
Last Quarter
Oct 4
New
Oct 11
First Quarter
Oct 18
Full

Hourly Weather History & Observations

Time (EDT) Temp. Heat Index Dew Point Humidity Pressure Visibility Wind Dir Wind Speed Gust Speed Precip Events Conditions
12:53 AM 73.9 °F - 71.1 °F 91% 30.01 in 10.0 mi Calm Calm - N/A   Mostly Cloudy
1:53 AM 72.0 °F - 71.1 °F 97% 30.00 in 9.0 mi NNW 3.5 mph - N/A   Partly Cloudy
2:53 AM 73.0 °F - 72.0 °F 96% 29.98 in 10.0 mi North 3.5 mph - N/A   Partly Cloudy
3:53 AM 73.9 °F - 72.0 °F 93% 29.96 in 10.0 mi Calm Calm - N/A   Clear
4:53 AM 73.9 °F - 72.0 °F 93% 29.96 in 10.0 mi NW 3.5 mph - N/A   Overcast
5:10 AM 75.2 °F - 73.4 °F 94% 29.96 in 10.0 mi Calm Calm - N/A   Mostly Cloudy
5:53 AM 77.0 °F - 75.0 °F 94% 29.96 in 9.0 mi NE 3.5 mph - N/A   Mostly Cloudy
6:22 AM 75.2 °F - 73.4 °F 94% 29.97 in 10.0 mi NE 4.6 mph - 0.00 in Rain Light Rain
6:53 AM 75.9 °F - 73.9 °F 94% 29.98 in 10.0 mi Calm Calm - 0.00 in   Scattered Clouds
7:53 AM 78.1 °F - 73.0 °F 84% 29.99 in 10.0 mi ENE 4.6 mph - 0.00 in   Scattered Clouds
8:30 AM 78.8 °F - 73.4 °F 83% 30.00 in 10.0 mi ENE 6.9 mph - N/A   Mostly Cloudy
8:42 AM 80.6 °F 85.4 °F 73.4 °F 79% 30.00 in 10.0 mi East 10.4 mph - 0.00 in Rain Light Rain
8:53 AM 80.1 °F 84.2 °F 73.0 °F 79% 30.01 in 10.0 mi East 10.4 mph - 0.00 in   Mostly Cloudy
9:53 AM 82.0 °F 87.4 °F 73.0 °F 74% 30.01 in 10.0 mi East 11.5 mph - N/A   Scattered Clouds
10:53 AM 82.9 °F 88.8 °F 73.0 °F 72% 30.02 in 10.0 mi ENE 11.5 mph - N/A   Mostly Cloudy
11:53 AM 84.0 °F 90.2 °F 73.0 °F 69% 30.03 in 10.0 mi East 13.8 mph - N/A   Partly Cloudy
12:53 PM 82.9 °F 89.4 °F 73.9 °F 74% 30.02 in 10.0 mi East 13.8 mph 20.7 mph 0.00 in   Mostly Cloudy
1:53 PM 81.0 °F 85.8 °F 73.0 °F 77% 30.01 in 10.0 mi East 10.4 mph 18.4 mph N/A   Scattered Clouds
2:53 PM 81.0 °F 85.8 °F 73.0 °F 77% 29.99 in 10.0 mi ENE 11.5 mph - N/A   Clear
3:23 PM 78.8 °F - 73.4 °F 83% 29.99 in 10.0 mi ESE 15.0 mph - N/A   Mostly Cloudy
3:53 PM 80.1 °F 84.5 °F 73.9 °F 81% 29.99 in 10.0 mi East 11.5 mph - N/A   Mostly Cloudy
4:00 PM 80.6 °F 85.4 °F 73.4 °F 79% 29.99 in 10.0 mi East 11.5 mph - N/A   Partly Cloudy
4:53 PM 82.9 °F 87.5 °F 71.1 °F 67% 29.99 in 10.0 mi ENE 9.2 mph 16.1 mph N/A   Scattered Clouds
5:33 PM 80.6 °F 84.6 °F 71.6 °F 74% 29.99 in 10.0 mi East 10.4 mph - 0.00 in Rain Light Rain
5:53 PM 81.0 °F 84.9 °F 71.1 °F 72% 29.99 in 10.0 mi ENE 10.4 mph - 0.00 in   Overcast
6:16 PM 80.6 °F 84.6 °F 71.6 °F 74% 29.99 in 10.0 mi ENE 11.5 mph 17.3 mph N/A   Scattered Clouds
6:53 PM 80.1 °F 83.6 °F 71.1 °F 74% 30.00 in 10.0 mi ENE 10.4 mph - N/A   Scattered Clouds
7:53 PM 79.0 °F - 70.0 °F 74% 30.01 in 10.0 mi ENE 9.2 mph - N/A   Mostly Cloudy
8:53 PM 79.0 °F - 68.0 °F 69% 30.02 in 10.0 mi East 8.1 mph - N/A   Scattered Clouds
9:53 PM 78.1 °F - 68.0 °F 71% 30.02 in 10.0 mi ENE 4.6 mph - N/A   Scattered Clouds
10:53 PM 78.1 °F - 68.0 °F 71% 30.03 in 10.0 mi East 9.2 mph - N/A   Partly Cloudy
11:53 PM 78.1 °F - 66.9 °F 68% 30.02 in 10.0 mi East 10.4 mph - N/A   Scattered Clouds